Home   Weather   Dothan   Past weeks
Flag for USA

Past Weather in Dothan, Alabama, USA — Yesterday and Last 2 Weeks

Now
72 °F

Light rain. Fog.


Feels Like: 68 °F
Forecast: 79 / 71 °F
Wind: 10 mph from East

Location: Dothan Airport

Current Time: Oct 15, 2019 at 2:58:32 pm

Latest Report: Oct 15, 2019 at 1:53 pm


Visibility: 4 mi

Pressure: 29.99 "Hg

Humidity: 93%

Dew Point: 70 °F

Location of DothanLocation

Past Weather in Dothan — Graph

°F

Dothan Temperature Yesterday

Maximum temperature yesterday: 86 °F (at 1:53 pm)
Minimum temperature yesterday: 67 °F (at 3:53 am)
Average temperature yesterday: 75 °F

High & Low Weather Summary for the Past Weeks

 TemperatureHumidityPressure
High99 °F (Oct 3, 3:53 pm)97% (Oct 15, 2:53 am)30.17 "Hg (Oct 15, 2:53 am)
Low61 °F (Oct 12, 6:53 am)30% (Oct 3, 3:53 pm)29.93 "Hg (Oct 8, 2:53 pm)
Average79 °F64%30.04 "Hg
* Reported Sep 30 12:53 pm — Oct 15 12:53 pm, Dothan. Weather by CustomWeather, © 2019

Note: Actual official high and low records may vary slightly from our data, if they occured in-between our weather recording intervals... More about our weather records

Advertising

Dothan Weather History for the Previous 24 Hours

Scroll right to see more
 ConditionsComfort  
Time TempWeatherWind HumidityBarometerVisibility
12:53 pm
Tue, Oct 15
72 °FLight rain. Fog.7 mph93%30.03 "Hg4 mi
12:29 pm72 °FLight rain. Low clouds.5 mph91%30.06 "Hg8 mi
11:53 am72 °FLow clouds.6 mph93%30.05 "Hg10 mi
11:33 am71 °FLow clouds.8 mph93%30.07 "Hg10 mi
10:53 am71 °FLow clouds.7 mph93%30.07 "Hg10 mi
10:18 am71 °FLight rain. Low clouds.7 mph93%30.09 "Hg9 mi
9:53 am70 °FRain. Fog.5 mph97%30.08 "Hg4 mi
9:27 am70 °FRain. Fog.5 mph97%30.10 "Hg2 mi
8:53 am70 °FRain. Fog.3 mph97%30.09 "Hg4 mi
7:53 am70 °FLight rain. Fog.6 mph93%30.08 "Hg4 mi
6:53 am69 °FLight rain. Fog.6 mph96%30.08 "Hg3 mi
6:03 am70 °FRain. Fog.10 mph93%30.10 "Hg3 mi
5:53 am70 °FHeavy rain. Fog.9 mph93%30.08 "Hg2 mi
4:53 am70 °FLight rain. Overcast.6 mph93%30.06 "Hg8 mi
3:53 am71 °FRain. Fog.5 mph93%30.07 "Hg6 mi
2:53 am72 °FLight rain. Fog.3 mph97%30.07 "Hg6 mi
1:53 am73 °FLight rain. Fog.No wind94%30.07 "Hg6 mi
12:53 am73 °FPassing clouds.No wind94%30.09 "Hg7 mi
11:53 pm
Mon, Oct 14
73 °FLight rain. Fog.3 mph94%30.10 "Hg6 mi
10:53 pm73 °FLight rain. Passing clouds.No wind94%30.11 "Hg8 mi
10:27 pm74 °FLow clouds.5 mph91%30.13 "Hg9 mi
9:53 pm73 °FPassing clouds.No wind94%30.11 "Hg10 mi
8:53 pm73 °FLight rain. Mostly cloudy.3 mph94%30.10 "Hg10 mi
7:53 pm73 °FLight rain. Overcast.5 mph94%30.10 "Hg10 mi
6:53 pm77 °FOvercast.7 mph79%30.09 "Hg10 mi
5:53 pm81 °FPartly sunny.5 mph60%30.05 "Hg10 mi
4:53 pm83 °FBroken clouds.6 mph57%30.05 "Hg10 mi
3:53 pm84 °FSunny.8 mph57%30.03 "Hg10 mi
2:53 pm85 °FScattered clouds.9 mph55%30.04 "Hg10 mi
Weather by CustomWeather, © 2019

See weather overview